Location: Bonny Doon Airfield
(37.0704°N, 122.1252°W)
Time: 08:07:07
(UTC-08:00)

Tiangong 1 - Pass Details

Date: 14 October 2017
Orbit: 275 x 302 km, 42.8° (Epoch: 14 December)

Event Time Altitude Azimuth Distance (km) Brightness Sun altitude
Rises 19:54:40 0° 294° (WNW) 2,078 6.1 -17.2°
Reaches altitude 10° 19:56:42 10° 295° (WNW) 1,230 4.7 -17.6°
Enters shadow 19:59:16 75° 314° (NW) 329 0.7 -18.1°
